WetterOnline ( https://www.wetteronline.de )

Wetter aktuell Pforzheim

Aktuelles Wetter: Mühlacker (245m)

6-stündlich | Neueste Meldungen
Ortszeit Temperatur Wetter
Mi, 08.12. 19:00 2.7° C bewölkt
Mi, 08.12. 13:00 4.8° C bedeckt
Mi, 08.12. 7:00 1.4° C Regen
Mi, 08.12. 1:00 1.7° C bedeckt
Di, 07.12. 19:00 -1.4° C wolkig
Di, 07.12. 13:00 5.6° C bewölkt
Di, 07.12. 7:00 3.8° C bedeckt
Di, 07.12. 1:00 1.1° C bedeckt
Ortszeit Temperatur Wetter
Mi, 08.12. 22:30 2.3° C leichter Regen
Mi, 08.12. 22:10 2.4° C leichter Regen
Mi, 08.12. 22:00 2.3° C Nebel
Mi, 08.12. 21:50 2.3° C Dunst
Mi, 08.12. 21:40 2.3° C Dunst
Mi, 08.12. 21:30 2.4° C bedeckt
Mi, 08.12. 21:00 2.5° C bewölkt
Mi, 08.12. 20:30 2.5° C wolkig
Mi, 08.12. 20:00 2.8° C fast wolkenlos
Mi, 08.12. 19:30 2.7° C wolkig
Ortszeit Relative Feuchte Sichtweite
Mi, 08.12. 19:00 96% 2.9 km
Mi, 08.12. 13:00 92% 35 km
Mi, 08.12. 7:00 95% 12 km
Mi, 08.12. 1:00 77% 60 km
Di, 07.12. 19:00 92% 50 km
Di, 07.12. 13:00 64% 50 km
Di, 07.12. 7:00 82% 60 km
Di, 07.12. 1:00 84% 45 km
Ortszeit Relative Feuchte Sichtweite
Mi, 08.12. 22:30 96% 13 km
Mi, 08.12. 22:10 96% -
Mi, 08.12. 22:00 97% 4.8 km
Mi, 08.12. 21:50 97% -
Mi, 08.12. 21:40 96% -
Mi, 08.12. 21:30 96% 5.0 km
Mi, 08.12. 21:00 96% 13 km
Mi, 08.12. 20:30 96% 4.0 km
Mi, 08.12. 20:00 96% 7 km
Mi, 08.12. 19:30 96% 3.3 km
Ortszeit Niederschlagsmenge Niederschlagsart
Mi, 08.12. 19:00 0.1 l/m2 in 12 Std. -
Mi, 08.12. 13:00 0.1 l/m2 in 6 Std. Sprühregen
Mi, 08.12. 7:00 2 l/m2 in 12 Std. Regen
Mi, 08.12. 1:00 0.0 l/m2 in 6 Std. -
Di, 07.12. 19:00 0.6 l/m2 in 12 Std. -
Di, 07.12. 13:00 0.6 l/m2 in 6 Std. Regen
Di, 07.12. 7:00 0.7 l/m2 in 12 Std. Schnee, Regen
Di, 07.12. 1:00 0.0 l/m2 in 6 Std. -
Ortszeit Niederschlagsmenge Niederschlagsart
Mi, 08.12. 22:30 0.1 l/m2 in 1 Std. -
Mi, 08.12. 22:10 keine Meldung -
Mi, 08.12. 22:00 0.0 l/m2 in 1 Std. Sprühregen
Mi, 08.12. 21:50 keine Meldung -
Mi, 08.12. 21:40 keine Meldung -
Mi, 08.12. 21:30 0.0 l/m2 in 1 Std. -
Mi, 08.12. 21:00 0.1 l/m2 in 1 Std. Sprühregen
Mi, 08.12. 20:30 0.1 l/m2 in 1 Std. Schnee
Mi, 08.12. 20:00 0.1 l/m2 in 1 Std. Sprühregen
Mi, 08.12. 19:30 0.0 l/m2 in 1 Std. -
Ortszeit Stärke Spitze Richtung
km/h Bft. km/h Grad Sektor
Mi, 08.12. 19:00 4 1 7 230° SW
Mi, 08.12. 13:00 0 0 14 - -
Mi, 08.12. 7:00 6 1 17 120° SO
Mi, 08.12. 1:00 9 2 20 120° SO
Di, 07.12. 19:00 6 1 26 90° O
Di, 07.12. 13:00 19 3 37 250° W
Di, 07.12. 7:00 20 4 39 270° W
Di, 07.12. 1:00 6 1 13 140° SO
Ortszeit Stärke Spitze Richtung
km/h Bft. km/h Grad Sektor
Mi, 08.12. 22:30 0 0 4 - -
Mi, 08.12. 22:10 0 0 - 110° O
Mi, 08.12. 22:00 0 0 4 - -
Mi, 08.12. 21:50 0 0 - 260° W
Mi, 08.12. 21:40 0 0 - 230° SW
Mi, 08.12. 21:30 0 0 4 - -
Mi, 08.12. 21:00 0 0 4 - -
Mi, 08.12. 20:30 2 1 6 80° O
Mi, 08.12. 20:00 2 1 4 300° NW
Mi, 08.12. 19:30 0 0 4 - -
Ortszeit Untergrenze Bedeckung Gattung
total tief tief mittel hoch
Mi, 08.12. 19:00 1200 m 7/8 7/8 - - -
Mi, 08.12. 13:00 1200 m 8/8 8/8 - - -
Mi, 08.12. 7:00 780 m 7/8 7/8 - - -
Mi, 08.12. 1:00 1410 m 8/8 8/8 - - -
Di, 07.12. 19:00 6300 m 8/8 3/8 - - -
Di, 07.12. 13:00 960 m 7/8 7/8 - - -
Di, 07.12. 7:00 1140 m 8/8 8/8 - - -
Di, 07.12. 1:00 1050 m 8/8 8/8 - - -
Ortszeit Bedeckungsgrad in Achtel und Wolkenuntergrenze
Mi, 08.12. 22:30 2(1020m)
Mi, 08.12. 22:10 3(1050m) 4(1800m)
Mi, 08.12. 22:00 3(1050m) 4(1500m) 6(2100m)
Mi, 08.12. 21:50 3(1050m) 4(1500m) 6(2100m)
Mi, 08.12. 21:40 1(1380m) 3(1500m) 6(2100m)
Mi, 08.12. 21:30 3(1380m) 7(1800m) 8(2400m)
Mi, 08.12. 21:00 4(720m) 6(1800m) 7(2100m)
Mi, 08.12. 20:30 2(1140m) 5(1500m)
Mi, 08.12. 20:00 1(2400m)
Mi, 08.12. 19:30 6(2400m)
Ortszeit Luftdruck NN (hPa) Tendenz (hPa in 3 Std.)
Mi, 08.12. 19:00 1003 + 1,2
Mi, 08.12. 13:00 1002 - 0,5
Mi, 08.12. 7:00 1002 - 0,2
Mi, 08.12. 1:00 1003 - 2,4
Di, 07.12. 19:00 1010 - 2,3
Di, 07.12. 13:00 1014 - 0,8
Di, 07.12. 7:00 1013 + 1,7
Di, 07.12. 1:00 1011 - 2,2
Ortszeit Luftdruck NN (hPa) Tendenz (hPa in 3 Std.)
Mi, 08.12. 22:30 1004 + 0,9
Mi, 08.12. 22:10 1004 keine Meldung
Mi, 08.12. 22:00 1004 + 1,0
Mi, 08.12. 21:50 1004 keine Meldung
Mi, 08.12. 21:40 1004 keine Meldung
Mi, 08.12. 21:30 1003 + 1,0
Mi, 08.12. 21:00 1003 + 0,9
Mi, 08.12. 20:30 1003 + 1,0
Mi, 08.12. 20:00 1003 + 1,3
Mi, 08.12. 19:30 1003 + 1,3
Ortszeit Schneehöhe (cm)
Mi, 08.12. 19:00 0
Mi, 08.12. 13:00 0
Mi, 08.12. 7:00 0
Mi, 08.12. 1:00 0
Di, 07.12. 19:00 0
Di, 07.12. 13:00 0
Di, 07.12. 7:00 0
Di, 07.12. 1:00 0
Ortszeit Schneehöhe (cm)
Mi, 08.12. 22:30 0
Mi, 08.12. 22:10 0
Mi, 08.12. 22:00 0
Mi, 08.12. 21:50 0
Mi, 08.12. 21:40 0
Mi, 08.12. 21:30 0
Mi, 08.12. 21:00 0
Mi, 08.12. 20:30 0
Mi, 08.12. 20:00 0
Mi, 08.12. 19:30 0
Link zu dieser Seite / Seite empfehlen

Das Wetter in ...